[[{"header":{"parameterUnit":"m.s-1","parameterCategory":1,"la1":30.2991,"la2":30.254,"lo1":-89.0895,"lo2":-89.0444,"dy":0.0017,"dx":0.0017,"nx":28,"ny":28,"refTime":"2024-06-20T03:00:00:Z","depth":0,"parameterNumber":2,"parameterNumberName":"U-component_of_WINDS"},"data":[0,0,0,0,0,0,0,0,0,0,0,0,0,0,0,0,0,0,0,0,0,0,0,0,0,0,0,0,0,0,0,0,0,0,0,0,0,0,0,0,0,0,0,0,0,0,0,0,0,0,0,0,0,0,0,0,0,0,-9.7537,-9.7537,0,-9.7502,-9.7502,-9.7501,-9.7293,-9.7288,-9.7283,-9.7278,-9.7243,-9.7246,-9.725,0,0,0,0,0,0,0,0,0,0,0,0,0,-9.7427,-9.743,-9.7538,-9.7537,-9.7537,-9.7502,-9.7502,-9.7501,-9.7294,-9.7288,-9.7282,-9.7276,-9.7242,-9.7246,-9.725,0,0,0,0,0,0,0,0,0,0,0,0,0,-9.7442,-9.7431,-9.7538,-9.7429,-9.7419,-9.7502,-9.7502,-9.7501,-9.7295,-9.7288,-9.728,-9.7273,-9.724,-9.7246,-9.7251,-9.7436,0,0,-9.7268,-9.7271,0,0,0,0,0,0,0,0,-9.7441,-9.7446,-9.7445,-9.7437,-9.7426,-9.7394,-9.7449,-9.7479,-9.7297,-9.7342,-9.7278,-9.7269,-9.7299,-9.73,-9.7309,-9.7435,-9.7433,-9.7269,-9.7272,-9.7274,-9.7276,0,0,0,0,0,0,0,-9.7441,-9.7447,-9.7523,-9.7446,-9.7434,-9.7383,-9.7376,-9.7454,-9.7363,-9.7338,-9.7323,-9.7321,-9.7292,-9.7305,-9.7307,-9.7432,-9.7268,-9.7273,-9.7277,-9.7279,-9.7708,-9.7716,0,0,0,0,0,0,-9.7455,-9.7447,-9.7524,-9.7522,-9.7415,-9.7391,-9.7384,-9.7412,-9.7362,-9.7347,-9.7328,-9.7312,-9.7299,-9.7301,-9.7305,-9.7517,-9.7274,-9.728,-9.7283,-9.77,-9.771,-9.7719,0,0,0,0,0,0,-9.7453,-9.7464,-9.7526,-9.7481,-9.7485,-9.7401,-9.7434,-9.7415,-9.7427,-9.7354,-9.7337,-9.7357,-9.7293,-9.7297,-9.7405,-9.7513,-9.7282,-9.7287,-9.7691,-9.7703,-9.7715,-9.7945,0,0,0,0,0,0,-9.7451,-9.7464,-9.7533,-9.7484,-9.7488,-9.7627,-9.7441,-9.742,-9.7437,-9.7416,-9.7377,-9.7363,-9.7287,-9.7398,-9.7411,-9.7517,-9.7292,-9.7681,-9.7697,-9.7711,-9.7928,-9.7964,-9.7995,0,0,0,0,0,-9.7448,-9.7599,-9.7537,-9.7548,-9.7572,-9.7633,-9.7635,-9.7545,-9.7447,-9.7515,-9.7469,-9.7364,-9.7501,-9.7411,-9.7423,-9.7533,-9.7673,-9.7692,-9.771,-9.7913,-9.7957,-9.7994,0,0,0,0,0,0,-9.7662,-9.7591,-9.7521,-9.7661,-9.7655,-9.7598,-9.7681,-9.7595,-9.7616,-9.7595,-9.7482,-9.7475,-9.76,-9.7577,-9.7479,-9.771,-9.7569,-9.7591,-9.7719,-9.7761,-9.7794,-9.7795,-9.7296,0,0,0,0,0,-9.7727,-9.7782,-9.7716,-9.7846,-9.7847,-9.7766,-9.7789,-9.772,-9.7709,-9.7705,-9.7666,-9.766,-9.7701,-9.773,-9.7764,-9.7925,-9.7913,-9.8007,-9.8041,-9.8069,-9.8087,-9.8171,-9.8212,-9.7778,-9.7778,-9.7778,0,0,-9.7858,-9.7826,-9.7867,-9.7889,-9.7875,-9.7936,-9.7764,-9.7835,-9.7878,-9.7715,-9.7814,-9.7787,-9.7772,-9.7908,-9.7966,-9.7893,-9.8205,-9.8092,-9.8115,-9.8118,-9.8194,-9.8235,-9.8271,-9.7791,-9.7788,-9.7787,0,0,-9.8128,-9.8111,-9.8216,-9.8208,-9.8191,-9.8136,-9.8163,-9.812,-9.8095,-9.8193,-9.8072,-9.8123,-9.8197,-9.8191,-9.8198,-9.8472,-9.8376,-9.8486,-9.866,-9.8743,-9.8777,-9.8807,-9.8903,-9.8939,-9.8506,-9.8507,-9.8507,0,-9.8294,-9.8379,-9.8282,-9.8361,-9.8374,-9.8231,-9.8338,-9.8335,-9.833,-9.8343,-9.8262,-9.8352,-9.8332,-9.8464,-9.8531,-9.8543,-9.8569,-9.8488,-9.878,-9.8809,-9.8835,-9.8925,-9.8962,-9.852,-9.8519,-9.8517,-9.8516,0,-9.8583,-9.8645,-9.8733,-9.8732,-9.8756,-9.8849,-9.8767,-9.8803,-9.8734,-9.8688,-9.8791,-9.8763,-9.8789,-9.8816,-9.8749,-9.894,-9.8895,-9.88,-9.8655,-9.8891,-9.8974,-9.9008,-9.8539,-9.8534,-9.853,-9.8527,0,0,-9.8982,-9.893,-9.8964,-9.8962,-9.8935,-9.8981,-9.9069,-9.9095,-9.9127,-9.9131,-9.9201,-9.9268,-9.918,-9.9189,-9.912,-9.9194,-9.9411,-9.9089,-9.9086,-9.9148,-9.9619,-9.9689,-9.973,-9.935,-9.9356,-9.9361,-9.9619,0,-9.924,-9.9385,-9.9302,-9.9459,-9.9515,-9.9383,-9.9459,-9.9452,-9.9413,-9.9455,-9.9413,-9.9462,-9.9343,-9.9347,-9.9414,-9.9371,-9.9504,-9.9351,-9.9413,-9.9416,-9.9417,-9.9774,-9.9847,-10.0092,-9.9651,-9.9657,-9.9661,0,-9.9557,-9.9575,-9.9739,-9.9702,-9.9722,-9.9793,-9.981,-9.9853,-9.9843,-9.9809,-9.9821,-9.9736,-9.982,-9.9681,-9.9796,-9.9694,-9.9715,-9.9699,-9.9706,-9.9705,-9.955,-9.978,-10.0168,-10.0204,-9.9711,-9.9707,-9.9703,0,-9.983,-9.9895,-10.0001,-10.0004,-9.9965,-10.0018,-10.0004,-9.9986,-10.0008,-10.0024,-10.0037,-10.0064,-10.0078,-10.0101,-10.0026,-9.9932,-10.0151,-10.0005,-10.0125,-10.0127,-10.0173,-10.017,-10.0567,-10.0193,-10.0193,-10.0192,-10.0191,0,-10.0123,-10.0228,-10.0123,-10.0188,-10.0302,-10.0207,-10.0323,-10.0295,-10.0281,-10.0339,-10.0228,-10.0284,-10.0183,-10.023,-10.0172,-10.0275,-10.0283,-10.0259,-10.0241,-10.0266,-10.0269,-10.0276,-10.0256,-10.0202,-10.0199,-10.0198,-10.0196,0,-10.0444,-10.0378,-10.0485,-10.0441,-10.0432,-10.0518,-10.048,-10.0539,-10.0495,-10.0569,-10.0581,-10.0512,-10.0562,-10.049,-10.0532,-10.0494,-10.0635,-10.0594,-10.0638,-10.0625,-10.0748,-10.0736,-10.1159,-10.1209,-10.0807,-10.0811,-10.0814,0,-10.0634,-10.0711,-10.0677,-10.0708,-10.0701,-10.0752,-10.0774,-10.0686,-10.0713,-10.0709,-10.0769,-10.0809,-10.0836,-10.0923,-10.0876,-10.0908,-10.0865,-10.1011,-10.0868,-10.0892,-10.0864,-10.0859,-10.0866,-10.1039,-10.1044,-10.1048,-10.1051,0,-10.0977,-10.0942,-10.0977,-10.1004,-10.1033,-10.1049,-10.1057,-10.1089,-10.0996,-10.1034,-10.1083,-10.1105,-10.1149,-10.1191,-10.1212,-10.1197,-10.111,-10.1097,-10.1126,-10.1151,-10.1172,-10.116,-10.0715,-10.1087,-10.1083,-10.108,-10.1079,-10.1077,-10.1236,-10.1299,-10.1285,-10.1329,-10.1327,-10.1337,-10.139,-10.1354,-10.1394,-10.1422,-10.1369,-10.1433,-10.1423,-10.1442,-10.1438,-10.1487,-10.1423,-10.1465,-10.1475,-10.1486,-10.1504,-10.1169,-10.1491,-10.149,-10.1489,-10.1488,-10.1487,0,-10.1571,-10.1557,-10.1599,-10.1614,-10.165,-10.1566,-10.1571,-10.1606,-10.1664,-10.1662,-10.1692,-10.1751,-10.1791,-10.175,-10.1783,-10.183,-10.1791,-10.1842,-10.1835,-10.1834,-10.1561,-10.1531,-10.1873,-10.1873,-10.1873,-10.1873,-10.1873,-10.1873,-10.1749,-10.1851,-10.1815,-10.1916,-10.19,-10.1961,-10.1972,-10.1981,-10.1979,-10.205,-10.2083,-10.2057,-10.204,-10.2071,-10.2105,-10.2092,-10.2108,-10.2173,-10.2146,-10.1891,-10.1853,-10.1817,-10.1788,-10.2178,-10.2179,-10.2414,-10.2416,-10.2418]},{"header":{"parameterUnit":"m.s-1","parameterCategory":1,"la1":30.2991,"la2":30.254,"lo1":-89.0895,"lo2":-89.0444,"dy":0.0017,"dx":0.0017,"nx":28,"ny":28,"refTime":"2024-06-20T03:00:00:Z","depth":0,"parameterNumber":3,"parameterNumberName":"V-component_of_WINDS"},"data":[0,0,0,0,0,0,0,0,0,0,0,0,0,0,0,0,0,0,0,0,0,0,0,0,0,0,0,0,0,0,0,0,0,0,0,0,0,0,0,0,0,0,0,0,0,0,0,0,0,0,0,0,0,0,0,0,0,0,0.8421,0.8421,0,0.8495,0.8496,0.8497,0.8593,0.8595,0.8596,0.8598,0.867,0.8671,0.8671,0,0,0,0,0,0,0,0,0,0,0,0,0,0.836,0.836,0.8421,0.8422,0.8422,0.8495,0.8496,0.8497,0.8593,0.8595,0.8597,0.8598,0.867,0.8671,0.8671,0,0,0,0,0,0,0,0,0,0,0,0,0,0.8405,0.836,0.842,0.8479,0.8485,0.8495,0.8496,0.8498,0.8592,0.8595,0.8597,0.8599,0.867,0.8671,0.8671,0.8628,0,0,0.8673,0.8674,0,0,0,0,0,0,0,0,0.8402,0.8407,0.847,0.8475,0.8482,0.8538,0.8501,0.8541,0.8592,0.8552,0.8598,0.8601,0.8624,0.8628,0.8637,0.8632,0.8635,0.8673,0.8674,0.8674,0.8674,0,0,0,0,0,0,0,0.8399,0.8405,0.845,0.847,0.8478,0.8501,0.851,0.8509,0.8573,0.8555,0.8562,0.857,0.8628,0.8636,0.864,0.8636,0.8673,0.8674,0.8674,0.8675,0.8601,0.8599,0,0,0,0,0,0,0.8388,0.8401,0.8448,0.8452,0.8447,0.85,0.8511,0.8517,0.8574,0.8585,0.8568,0.8574,0.8634,0.8639,0.8642,0.8597,0.8674,0.8675,0.8675,0.8604,0.8601,0.8598,0,0,0,0,0,0,0.8386,0.8391,0.8445,0.8429,0.8438,0.8499,0.8506,0.8517,0.8526,0.8584,0.8595,0.8565,0.8636,0.8641,0.8632,0.8601,0.8675,0.8676,0.8606,0.8603,0.8599,0.8504,0,0,0,0,0,0,0.8384,0.839,0.8374,0.8428,0.8438,0.8433,0.8504,0.8517,0.8528,0.8536,0.8584,0.8594,0.8638,0.863,0.8633,0.8603,0.8676,0.8609,0.8605,0.8601,0.851,0.8498,0.8487,0,0,0,0,0,0.8381,0.8343,0.8373,0.8378,0.842,0.8431,0.8437,0.8489,0.8525,0.8509,0.8547,0.8592,0.8604,0.8629,0.8632,0.8602,0.8612,0.8606,0.8601,0.8516,0.85,0.8488,0,0,0,0,0,0,0.8281,0.8351,0.8384,0.8363,0.839,0.8447,0.8429,0.8471,0.8488,0.8496,0.856,0.857,0.8552,0.8577,0.8602,0.8565,0.8615,0.861,0.8549,0.8535,0.8523,0.8517,0.8677,0,0,0,0,0,0.8257,0.8261,0.8322,0.8296,0.8309,0.8366,0.8373,0.8412,0.8443,0.8454,0.8491,0.8518,0.8529,0.8533,0.8546,0.8516,0.8527,0.8497,0.8485,0.8475,0.847,0.8457,0.8444,0.8581,0.8581,0.8581,0,0,0.8206,0.8245,0.8243,0.8277,0.8303,0.8306,0.8375,0.8374,0.8377,0.8454,0.8447,0.8475,0.851,0.849,0.8483,0.851,0.8435,0.8469,0.846,0.846,0.845,0.8437,0.8425,0.8577,0.8578,0.8578,0,0,0.8115,0.8145,0.8128,0.8153,0.8193,0.8232,0.8228,0.8279,0.8301,0.8297,0.8355,0.8359,0.8374,0.8397,0.8411,0.8332,0.8374,0.8334,0.8272,0.8259,0.8248,0.8239,0.8211,0.82,0.8329,0.8329,0.8328,0,0.8046,0.8053,0.8113,0.8109,0.8123,0.8196,0.8179,0.8201,0.8241,0.8249,0.8279,0.8302,0.833,0.8317,0.8298,0.8307,0.8304,0.8328,0.8245,0.8236,0.8229,0.8202,0.8191,0.8323,0.8324,0.8325,0.8325,0,0.7966,0.797,0.7952,0.7992,0.8004,0.7993,0.8052,0.8056,0.8095,0.8131,0.8126,0.8164,0.8186,0.8186,0.8223,0.8179,0.8194,0.8234,0.8285,0.8209,0.8186,0.8176,0.8316,0.8318,0.8319,0.8321,0,0,0.781,0.7887,0.7879,0.7899,0.7949,0.7953,0.7947,0.797,0.7973,0.8,0.7996,0.8009,0.8047,0.8063,0.8103,0.8092,0.8027,0.8133,0.8135,0.8111,0.7981,0.795,0.7937,0.8057,0.8055,0.8054,0.7978,0,0.7728,0.7722,0.7777,0.7756,0.7761,0.7832,0.7827,0.7857,0.7891,0.79,0.7938,0.7946,0.7996,0.8006,0.7998,0.8036,0.8001,0.8043,0.8053,0.8052,0.804,0.7925,0.7891,0.7818,0.7969,0.7968,0.7967,0,0.7629,0.7653,0.7632,0.7686,0.769,0.7684,0.7712,0.7719,0.7756,0.7782,0.7801,0.7848,0.7846,0.7897,0.7894,0.7921,0.7929,0.7949,0.7947,0.7949,0.8003,0.7922,0.7796,0.7784,0.7953,0.7954,0.7955,0,0.7517,0.7544,0.7535,0.755,0.7613,0.7607,0.7633,0.7672,0.7683,0.7707,0.7715,0.7738,0.7749,0.7766,0.7818,0.785,0.781,0.7864,0.783,0.7829,0.7816,0.7816,0.7688,0.7824,0.7824,0.7824,0.7824,0,0.7418,0.7402,0.7486,0.748,0.7466,0.7531,0.7514,0.7547,0.7582,0.7584,0.7647,0.7647,0.7718,0.7726,0.7767,0.7759,0.7764,0.7784,0.7795,0.7778,0.7775,0.7782,0.7788,0.7821,0.7822,0.7822,0.7823,0,0.7288,0.7344,0.734,0.7401,0.7416,0.7403,0.7455,0.7452,0.7492,0.7494,0.7498,0.756,0.7574,0.7629,0.7655,0.7683,0.766,0.7682,0.7648,0.7655,0.7617,0.762,0.7488,0.7474,0.7619,0.7618,0.7617,0,0.722,0.7211,0.7272,0.7279,0.7302,0.7312,0.7325,0.7389,0.74,0.7443,0.7435,0.7454,0.7472,0.749,0.7537,0.7558,0.758,0.7533,0.7583,0.7567,0.7579,0.7578,0.7577,0.7521,0.7519,0.7518,0.7516,0,0.7094,0.7123,0.7139,0.7166,0.718,0.7204,0.7231,0.7233,0.7305,0.7314,0.7329,0.7344,0.7372,0.739,0.7419,0.7445,0.7492,0.7501,0.7494,0.7475,0.7455,0.7465,0.7617,0.7503,0.7504,0.7505,0.7506,0.7506,0.6993,0.6988,0.7031,0.7048,0.7076,0.7101,0.7102,0.7144,0.7158,0.7187,0.7225,0.7235,0.7275,0.7319,0.7342,0.7351,0.7377,0.7367,0.7364,0.736,0.7352,0.7455,0.7357,0.7357,0.7358,0.7358,0.7358,0,0.6869,0.6901,0.6916,0.6954,0.6967,0.7014,0.7047,0.7055,0.7064,0.7097,0.7115,0.7134,0.7152,0.7202,0.7226,0.7223,0.7246,0.7227,0.7227,0.7232,0.7327,0.7331,0.7209,0.7209,0.7209,0.7209,0.7209,0.7209,0.6806,0.6801,0.6835,0.6845,0.6877,0.689,0.6905,0.6928,0.6955,0.6974,0.699,0.7024,0.7064,0.7091,0.711,0.7124,0.7129,0.7104,0.7124,0.7211,0.7226,0.7239,0.7243,0.7105,0.7104,0.7029,0.7028,0.7028]}]]